Regional Weather Roundup
Issued by NWS

Home | Current Version | Previous Version | Graphics & Text | Print | Product List | Glossary On
Versions: 1 2 3 4 5 6 7 8 9 10 11 12 13 14 15 16 17 18 19 20 21 22 23 24 25 26 27 28
000
ASUS45 KBOU 301407
RWRCO

WEATHER ROUNDUP FOR COLORADO
NATIONAL WEATHER SERVICE DENVER/BOULDER CO
800 AM MDT MON MAY 30 2016

NOTE: "FAIR" INDICATES FEW OR NO CLOUDS BELOW 12000 FEET WITH NO
SIGNIFICANT WEATHER AND/OR OBSTRUCTIONS TO VISIBILITY.

COZ001>005-013-030-031-301500-
...NORTHWEST COLORADO...

CITY           SKY/WX    TMP DP  RH WIND       PRES   REMARKS
CRAIG          FAIR      49  41  74 NW6       30.18S
HAYDEN         FAIR      45  34  65 SW3       30.18S
MEEKER         FAIR      47  36  65 CALM      30.17F
MOUNT WERNER   NOT AVBL
STEAMBOAT SPGS FAIR      45  36  70 CALM      30.18S
WALDEN         NOT AVBL
$$

COZ006>008-011-301500-
...WEST CENTRAL VALLEYS...

CITY           SKY/WX    TMP DP  RH WIND       PRES   REMARKS
GRAND JUNCTION FAIR      58  39  49 N5        30.09R
MONTROSE       FAIR      53  32  44 SE3       30.13S
EAGLE          SUNNY     45  36  70 CALM      30.22S
RIFLE          FAIR      49  38  65 CALM      30.13S
DELTA          FAIR      58  34  39 CALM      30.11S
NUCLA          FAIR      54  32  43 CALM      30.17R
$$

COZ017>023-064>068-301500-
...SOUTHWEST COLORADO...

CITY           SKY/WX    TMP DP  RH WIND       PRES   REMARKS
DURANGO        FAIR      50  31  48 VRB3      30.18R
CORTEZ         FAIR      54  31  41 CALM      30.13S
PAGOSA SPRINGS FAIR      52  29  40 CALM      30.25R
TELLURIDE      FAIR      50  26  38 CALM      30.30S
WOLF CREEK PAS FAIR      41  19  42 S10       30.48R
$$

COZ009-010-012-014-032>034-037-058>063-301500-
...CENTRAL COLORADO...

CITY           SKY/WX    TMP DP  RH WIND       PRES   REMARKS
ASPEN          FAIR      49  30  48 E3        30.18F
BUENA VISTA    FAIR      47  28  47 CALM      30.26S
COPPER MTN     NOT AVBL
BERTHOUD PASS  FAIR      34  27  75 W12G21    30.42F WCI  25
COTTONWOOD PAS FAIR      52  25  35 SE3       30.33S
GUNNISON       FAIR      41  30  65 CALM      30.29S
KREMMLING      FAIR      41  32  70 CALM      30.24S
LEADVILLE      FAIR      40  26  57 W3        30.31F
MONARCH PASS   FAIR      41  23  48 S16       30.54R
SALIDA         FAIR      47  30  51 CALM      30.32S
SUNLIGHT       FAIR      45  28  53 CALM      30.37S
WILKERSON PASS FAIR      41  27  56 SW5       30.42S
$$

COZ069>075-301500-
...SAN LUIS VALLEY/SANGRE DE CRISTO MOUNTAINS...

CITY           SKY/WX    TMP DP  RH WIND       PRES   REMARKS
ALAMOSA        FAIR      48  36  63 CALM      30.24R
LA VETA PASS   FAIR      45  28  53 SW3       30.35S
SAGUACHE       FAIR      48  32  53 CALM      30.27R
$$

COZ035-036-038>040-301500-
...NORTHERN COLORADO FRONT RANGE...

CITY           SKY/WX    TMP DP  RH WIND       PRES   REMARKS
DENVER INTL AP FAIR      60  44  55 W10       30.05S
DMNS CITY PARK   N/A     61  39  44 S7        30.05S
AURORA         MOSUNNY   61  41  48 SW13      30.06S
FRONT RANGE AP MOSUNNY   63  43  48 SW7       30.06S
ERIE MUNI ARPT FAIR      56  46  69 CALM      30.05S
BOULDER MUN AP FAIR      57  43  58 N3        30.05R
CENTENNIAL     FAIR      62  40  44 SW10      30.08S
BROOMFIELD     MOSUNNY   55  39  54 CALM      30.07S
FORT COLLINS   FAIR      55  45  67 CALM      30.05S
LONGMONT       FAIR      59  44  57 E3        30.06S
$$

COZ041-046-047-076>085-087-088-301500-
...PIKES PEAK/PALMER DIVIDE AND SOUTHERN FOOTHILLS...

CITY           SKY/WX    TMP DP  RH WIND       PRES   REMARKS
COLO. SPRINGS  FAIR      57  42  57 CALM      30.13S
A. F. ACADEMY  FAIR      54  39  58 N6        30.13S
SCHRIEVER AFB  NOT AVBL
ELLICOTT       NOT AVBL
FALCON         FAIR      60  40  48 SW6       30.16R
FORT CARSON    FAIR      57  45  64 NE1       30.10S
LIMON          FAIR      52  48  86 SE6       30.08F
MONUMENT HILL  FAIR      55  41  58 SW6       30.16S
TRINIDAD       FAIR      58  44  60 W17       30.11F
$$

COZ042>045-048>051-090-091-301500-
...NORTHEAST COLORADO...

CITY           SKY/WX    TMP DP  RH WIND       PRES   REMARKS
GREELEY ARPT   FAIR      55  45  67 CALM      30.05R
AKRON          FAIR      59  49  69 S8        30.03F
BURLINGTON     FAIR      61  50  67 SW12      30.03S
WRAY           FAIR      63  52  67 W9        30.01F HAZE
STERLING       FAIR      59  52  77 SW9       30.01S
HOLYOKE        FAIR      64  52  63 SW10      30.01S
FORT MORGAN    FAIR      57  48  71 SW3       30.04S
$$

COZ086-089-092>099-301500-
...SOUTHEAST COLORADO...

CITY           SKY/WX    TMP DP  RH WIND       PRES   REMARKS
PUEBLO         FAIR      58  47  66 W6        30.07F
LA JUNTA       FAIR      57  49  74 SW10      30.04F
LAMAR          FAIR      58  49  72 N6        30.01F
SPRINGFIELD      N/A     62  52  69 S20G26    30.06F
$$




USA.gov is the U.S. government's official web portal to all federal, state and local government web resources and services.